Weather History for Watertown, SD

Change the Weather History Date:

Friday, October 18, 2013

  Actual Average Record
Temperature  
Mean Temperature 37 °F 45 °F  
Max Temperature 48 °F 56 °F 80 °F (1953)
Min Temperature 26 °F 34 °F 13 °F (1972)
Degree Days  
Heating Degree Days 28 20  
Month to date heating degree days 255 303  
Since 1 July heating degree days 391 579  
Cooling Degree Days 0 0  
Month to date cooling degree days 0 0  
Year to date cooling degree days 618 513  
Moisture  
Dew Point 31 °F    
Average Humidity 73    
Maximum Humidity 92    
Minimum Humidity 53    
Precipitation  
Precipitation T in 0.07 in 1.05 in (1910)
Month to date precipitation 4.16 1.26  
Year to date precipitation 24.10 20.13  
Snow  
Snow 0.00 in - - ()
Month to date snowfall 0.0  
Since 1 July snowfall 0.0  
Snow Depth 0.00 in    
Sea Level Pressure  
Sea Level Pressure 30.00 in    
Wind  
Wind Speed 8 mph (West)    
Max Wind Speed 20 mph    
Max Gust Speed 26 mph    
Visibility 10 miles    
Events Rain    
T = Trace of Precipitation, MM = Missing Value Source: NWS Daily Summary

Daily Weather History Graph

Daily Weather History Graph

Search for Another Location

Airport:

Trip Planner

Search our weather history database for the weather conditions in past years. The results will help you decide how hot, cold, wet, or windy it might be!

Date:

Astronomy

Oct. 18, 2013 Rise Set
Actual Time 7:48 AM CDT 6:38 PM CDT
Civil Twilight 7:18 AM CDT 7:07 PM CDT
Nautical Twilight 6:44 AM CDT 7:41 PM CDT
Astronomical Twilight 6:10 AM CDT 8:15 PM CDT
Moon 6:27 PM CDT (10/18) 7:25 AM CDT (10/18)
Length of Visible Light 11h 49m
Length of Day
10h 49m
Full, 100% of the Moon is Illuminated
Oct 18
Full
Oct 18
Full
Oct 26
Last Quarter
Nov 3
New
Nov 9
First Quarter

Hourly Weather History & Observations

Time (CDT) Temp. Windchill Dew Point Humidity Pressure Visibility Wind Dir Wind Speed Gust Speed Precip Events Conditions
12:53 AM 34.0 °F 28.0 °F 30.0 °F 85% 30.04 in 10.0 mi WNW 6.9 mph - N/A   Clear
1:53 AM 33.1 °F 26.9 °F 30.0 °F 89% 30.04 in 10.0 mi WNW 6.9 mph - N/A   Clear
2:53 AM 32.0 °F 26.4 °F 28.9 °F 88% 30.04 in 10.0 mi West 5.8 mph - N/A   Clear
3:53 AM 32.0 °F 24.8 °F 28.9 °F 88% 30.03 in 10.0 mi WNW 8.1 mph - N/A   Clear
4:53 AM 32.0 °F 25.6 °F 28.9 °F 88% 30.04 in 10.0 mi WNW 6.9 mph - N/A   Clear
5:53 AM 32.0 °F 25.6 °F 28.9 °F 88% 30.05 in 10.0 mi WNW 6.9 mph - N/A   Clear
6:53 AM 30.9 °F 25.2 °F 28.0 °F 89% 30.05 in 10.0 mi WNW 5.8 mph - N/A   Clear
7:53 AM 27.0 °F - 25.0 °F 92% 30.06 in 10.0 mi Calm Calm - N/A   Clear
8:53 AM 30.0 °F - 27.0 °F 88% 30.06 in 10.0 mi Calm Calm - N/A   Clear
9:53 AM 37.0 °F 33.3 °F 30.9 °F 79% 30.06 in 10.0 mi West 4.6 mph - N/A   Clear
10:53 AM 42.1 °F 37.1 °F 32.0 °F 67% 30.05 in 10.0 mi West 8.1 mph - N/A   Clear
11:53 AM 45.0 °F 40.1 °F 32.0 °F 60% 30.03 in 10.0 mi WSW 9.2 mph - N/A   Clear
12:53 PM 46.9 °F - 30.0 °F 52% 30.01 in 10.0 mi West 13.8 mph - N/A   Clear
1:53 PM 46.9 °F - 30.9 °F 54% 29.99 in 10.0 mi West 13.8 mph 20.7 mph N/A   Mostly Cloudy
2:53 PM 46.9 °F - 34.0 °F 61% 29.97 in 10.0 mi West 15.0 mph 20.7 mph N/A   Scattered Clouds
3:53 PM 45.0 °F 39.3 °F 34.0 °F 65% 29.96 in 10.0 mi West 11.5 mph - N/A   Overcast
4:40 PM 41.0 °F 32.5 °F 33.8 °F 76% 29.92 in 10.0 mi WNW 17.3 mph 24.2 mph 0.00 in Rain Light Rain
4:53 PM 42.1 °F 36.1 °F 33.1 °F 70% 29.96 in 10.0 mi West 10.4 mph - 0.00 in   Overcast
5:53 PM 42.1 °F 35.7 °F 32.0 °F 67% 29.96 in 10.0 mi West 11.5 mph - N/A   Clear
6:53 PM 37.0 °F 31.6 °F 32.0 °F 82% 29.96 in 10.0 mi West 6.9 mph - N/A   Clear
7:53 PM 37.0 °F 31.0 °F 33.1 °F 86% 29.96 in 10.0 mi West 8.1 mph - N/A   Mostly Cloudy
8:53 PM 35.1 °F 29.3 °F 32.0 °F 89% 29.94 in 10.0 mi WSW 6.9 mph - N/A   Mostly Cloudy
9:53 PM 35.1 °F 28.6 °F 32.0 °F 89% 29.92 in 10.0 mi WSW 8.1 mph - N/A   Clear
10:53 PM 35.1 °F 27.9 °F 33.1 °F 92% 29.90 in 10.0 mi WSW 9.2 mph - N/A   Mostly Cloudy
11:53 PM 33.1 °F 26.1 °F 30.9 °F 92% 29.88 in 10.0 mi WSW 8.1 mph - N/A   Clear